| time (UTC) | temp F | wind direction | speed MPH | gust MPH | rain 1hr in | rain 24hr in | rain mn in | humidity % | barometer mb |
| 20260506151549 | 35 | 304 | 1.0 | 8.0 | 0.00 | 0.00 | 0.00 | 70 | 1013.8 |
| 20260506150051 | 35 | 281 | 2.0 | 8.0 | 0.00 | 0.00 | 0.00 | 68 | 1013.7 |
| 20260506144555 | 34 | 232 | 2.0 | 14.0 | 0.00 | 0.00 | 0.00 | 71 | 1013.7 |
| 20260506143051 | 34 | 303 | 3.0 | 11.0 | 0.00 | 0.00 | 0.00 | 70 | 1013.7 |
| 20260506141549 | 34 | 315 | 2.0 | 8.0 | 0.00 | 0.00 | 0.00 | 71 | 1013.8 |
| 20260506140054 | 33 | 209 | 2.0 | 10.0 | 0.00 | 0.00 | 0.00 | 71 | 1013.9 |
| 20260506134552 | 33 | 30 | 2.0 | 8.0 | 0.00 | 0.00 | 0.00 | 73 | 1013.7 |
| 20260506133102 | 32 | 226 | 1.0 | 10.0 | 0.00 | 0.00 | 0.00 | 74 | 1013.8 |
| 20260506131552 | 32 | 44 | 1.0 | 6.0 | 0.00 | 0.00 | 0.00 | 75 | 1013.6 |
| 20260506130110 | 31 | 297 | 2.0 | 11.0 | 0.00 | 0.00 | 0.00 | 75 | 1013.6 |
| 20260506124551 | 31 | 270 | 2.0 | 15.0 | 0.00 | 0.00 | 0.00 | 76 | 1013.7 |
| 20260506123054 | 31 | 278 | 1.0 | 7.0 | 0.00 | 0.00 | 0.00 | 77 | 1013.6 |
| 20260506121552 | 30 | 0 | 3.0 | 9.0 | 0.00 | 0.00 | 0.00 | 77 | 1013.3 |
| 20260506120054 | 30 | 26 | 1.0 | 5.0 | 0.00 | 0.00 | 0.00 | 77 | 1013.2 |
| 20260506114604 | 30 | 0 | 0.0 | 6.0 | 0.00 | 0.00 | 0.00 | 77 | 1012.9 |
| 20260506113052 | 30 | 307 | 0.0 | 6.0 | 0.00 | 0.00 | 0.00 | 77 | 1012.7 |
| 20260506111547 | 30 | 0 | 1.0 | 7.0 | 0.00 | 0.00 | 0.00 | 76 | 1012.7 |
| 20260506110054 | 30 | 53 | 0.0 | 4.0 | 0.00 | 0.00 | 0.00 | 76 | 1012.7 |
| 20260506104610 | 30 | 0 | 1.0 | 4.0 | 0.00 | 0.00 | 0.00 | 76 | 1012.7 |
| 20260506103055 | 30 | 0 | 0.0 | 8.0 | 0.00 | 0.00 | 0.00 | 76 | 1012.6 |
| 20260506101551 | 30 | 0 | 1.0 | 4.0 | 0.00 | 0.00 | 0.00 | 76 | 1012.7 |
| 20260506100054 | 30 | 290 | 0.0 | 5.0 | 0.00 | 0.00 | 0.00 | 76 | 1012.8 |
| 20260506094550 | 30 | 46 | 1.0 | 9.0 | 0.00 | 0.00 | 0.00 | 76 | 1012.6 |
| 20260506093052 | 30 | 273 | 2.0 | 8.0 | 0.00 | 0.00 | 0.00 | 76 | 1012.7 |
| 20260506091548 | 30 | 291 | 0.0 | 7.0 | 0.00 | 0.00 | 0.00 | 76 | 1012.7 |
| 20260506090051 | 30 | 294 | 0.0 | 2.0 | 0.00 | 0.00 | 0.00 | 76 | 1012.5 |
| 20260506084555 | 30 | 217 | 1.0 | 4.0 | 0.00 | 0.00 | 0.00 | 75 | 1012.6 |
| 20260506083051 | 30 | 36 | 2.0 | 7.0 | 0.00 | 0.00 | 0.00 | 76 | 1012.5 |
| 20260506081557 | 30 | 273 | 1.0 | 5.0 | 0.00 | 0.00 | 0.00 | 74 | 1012.5 |
| 20260506073057 | 30 | 288 | 0.0 | 7.0 | 0.00 | 0.00 | 0.00 | 74 | 1012.4 |
| 20260506071621 | 30 | 236 | 1.0 | 7.0 | 0.00 | 0.00 | 0.00 | 73 | 1012.5 |
| 20260506061556 | 31 | 0 | 1.0 | 6.0 | 0.00 | 0.00 | 0.00 | 71 | 1012.3 |
| 20260506044609 | 32 | 268 | 2.0 | 6.0 | 0.00 | 0.00 | 0.00 | 69 | 1012.0 |
| 20260506043056 | 32 | 43 | 1.0 | 10.0 | 0.00 | 0.00 | 0.00 | 68 | 1012.0 |
| 20260506041554 | 33 | 304 | 2.0 | 10.0 | 0.00 | 0.00 | 0.00 | 68 | 1012.3 |
| 20260506040053 | 33 | 30 | 1.0 | 10.0 | 0.00 | 0.00 | 0.00 | 69 | 1012.0 |
| 20260506034552 | 33 | 269 | 1.0 | 9.0 | 0.00 | 0.00 | 0.00 | 68 | 1012.2 |
| 20260506033052 | 33 | 300 | 2.0 | 13.0 | 0.00 | 0.00 | 0.00 | 67 | 1011.9 |
| 20260506031555 | 33 | 292 | 1.0 | 4.0 | 0.00 | 0.00 | 0.00 | 68 | 1012.0 |
| 20260506030056 | 33 | 355 | 1.0 | 5.0 | 0.00 | 0.00 | 0.00 | 67 | 1012.0 |
| 20260506024555 | 33 | 355 | 1.0 | 8.0 | 0.00 | 0.00 | 0.00 | 67 | 1011.8 |
| 20260506023055 | 34 | 308 | 1.0 | 7.0 | 0.00 | 0.00 | 0.00 | 67 | 1011.8 |
| 20260506021558 | 34 | 277 | 2.0 | 10.0 | 0.00 | 0.00 | 0.00 | 67 | 1011.6 |
| 20260506020055 | 34 | 238 | 2.0 | 9.0 | 0.00 | 0.00 | 0.00 | 66 | 1011.6 |
| 20260506014550 | 34 | 270 | 2.0 | 9.0 | 0.00 | 0.00 | 0.00 | 65 | 1011.3 |
| 20260506013052 | 34 | 0 | 1.0 | 7.0 | 0.00 | 0.00 | 0.00 | 67 | 1011.2 |
| 20260506011553 | 34 | 355 | 1.0 | 9.0 | 0.00 | 0.00 | 0.00 | 66 | 1011.1 |
| 20260506010055 | 35 | 349 | 2.0 | 7.0 | 0.00 | 0.00 | 0.00 | 65 | 1011.1 |
| 20260506004548 | 35 | 288 | 1.0 | 11.0 | 0.00 | 0.00 | 0.00 | 64 | 1011.1 |
| 20260506003059 | 35 | 51 | 1.0 | 12.0 | 0.00 | 0.00 | 0.00 | 63 | 1011.0 |
| 20260506001605 | 35 | 286 | 2.0 | 9.0 | 0.00 | 0.00 | 0.00 | 63 | 1010.8 |
| 20260506000054 | 36 | 207 | 2.0 | 9.0 | 0.00 | 0.00 | 0.00 | 62 | 1010.4 |
| 20260505234609 | 36 | 290 | 3.0 | 9.0 | 0.00 | 0.00 | 0.00 | 60 | 1010.4 |
| 20260505233053 | 36 | 121 | 3.0 | 11.0 | 0.00 | 0.00 | 0.00 | 60 | 1010.2 |
| 20260505231557 | 37 | 247 | 3.0 | 8.0 | 0.00 | 0.00 | 0.00 | 59 | 1010.2 |
| 20260505230058 | 37 | 248 | 2.0 | 11.0 | 0.00 | 0.00 | 0.00 | 60 | 1010.0 |
| 20260505224554 | 37 | 290 | 2.0 | 9.0 | 0.00 | 0.00 | 0.00 | 58 | 1010.1 |
| 20260505223104 | 38 | 319 | 2.0 | 8.0 | 0.00 | 0.00 | 0.00 | 56 | 1009.8 |
| 20260505221549 | 38 | 306 | 3.0 | 13.0 | 0.00 | 0.00 | 0.00 | 56 | 1009.6 |
| 20260505220054 | 38 | 302 | 4.0 | 10.0 | 0.00 | 0.00 | 0.00 | 58 | 1009.5 |
| 20260505214602 | 39 | 272 | 3.0 | 12.0 | 0.00 | 0.00 | 0.00 | 58 | 1009.5 |
| 20260505213057 | 39 | 236 | 1.0 | 9.0 | 0.00 | 0.00 | 0.00 | 57 | 1009.3 |
| 20260505211617 | 38 | 281 | 2.0 | 12.0 | 0.00 | 0.00 | 0.00 | 58 | 1009.6 |
| 20260505210055 | 38 | 233 | 3.0 | 9.0 | 0.00 | 0.00 | 0.00 | 57 | 1009.4 |
| 20260505204556 | 38 | 267 | 4.0 | 16.0 | 0.00 | 0.00 | 0.00 | 57 | 1009.4 |
| 20260505203114 | 37 | 43 | 3.0 | 11.0 | 0.00 | 0.00 | 0.00 | 59 | 1009.5 |
| 20260505201552 | 38 | 285 | 3.0 | 10.0 | 0.00 | 0.00 | 0.00 | 59 | 1009.4 |
| 20260505200051 | 37 | 278 | 4.0 | 12.0 | 0.00 | 0.00 | 0.00 | 59 | 1009.5 |
| 20260505194554 | 38 | 282 | 4.0 | 11.0 | 0.00 | 0.00 | 0.00 | 59 | 1009.4 |
| 20260505193059 | 38 | 308 | 3.0 | 12.0 | 0.00 | 0.00 | 0.00 | 58 | 1009.3 |
| 20260505191556 | 37 | 291 | 2.0 | 9.0 | 0.00 | 0.00 | 0.00 | 58 | 1009.2 |
| 20260505190056 | 38 | 281 | 2.0 | 11.0 | 0.00 | 0.00 | 0.00 | 59 | 1009.0 |
| 20260505184554 | 37 | 302 | 3.0 | 12.0 | 0.00 | 0.00 | 0.00 | 57 | 1008.8 |
| 20260505183054 | 37 | 5 | 2.0 | 12.0 | 0.00 | 0.00 | 0.00 | 58 | 1008.9 |
| 20260505181552 | 36 | 307 | 2.0 | 9.0 | 0.00 | 0.00 | 0.00 | 58 | 1008.9 |
| 20260505180056 | 35 | 0 | 1.0 | 11.0 | 0.00 | 0.00 | 0.00 | 60 | 1008.9 |
| 20260505174556 | 35 | 295 | 2.0 | 14.0 | 0.00 | 0.00 | 0.00 | 62 | 1008.8 |
| 20260505173052 | 35 | 299 | 2.0 | 11.0 | 0.00 | 0.00 | 0.00 | 60 | 1008.7 |
| 20260505171556 | 34 | 14 | 1.0 | 8.0 | 0.00 | 0.00 | 0.00 | 64 | 1008.6 |
| 20260505170055 | 33 | 267 | 1.0 | 11.0 | 0.00 | 0.00 | 0.00 | 66 | 1008.8 |
| 20260505164556 | 32 | 26 | 2.0 | 15.0 | 0.00 | 0.00 | 0.00 | 64 | 1008.6 |
| 20260505163052 | 32 | 328 | 7.0 | 14.0 | 0.00 | 0.00 | 0.00 | 66 | 1008.4 |
| 20260505161548 | 32 | 317 | 2.0 | 8.0 | 0.00 | 0.00 | 0.00 | 74 | 1008.2 |
| 20260505153057 | 30 | 286 | 2.0 | 10.0 | 0.00 | 0.00 | 0.00 | 75 | 1007.9 |